Moffett Field, CA

4:21 AM PDT on September 26, 2016 (GMT -0700)
Moffett Federal Air Field

Weather History for KNUQ - August, 2012

Change the Weather History Date:

Thursday, August 2, 2012

  Actual Average Record
Temperature  
Mean Temperature 69 °F 68 °F  
Max Temperature 78 °F 77 °F 95 °F (1946)
Min Temperature 59 °F 60 °F 3 °F (2010)
Degree Days  
Heating Degree Days 0    
Month to date heating degree days 0  
Since 1 June heating degree days 51  
Since 1 July heating degree days 10  
Cooling Degree Days 4    
Month to date cooling degree days 7  
Year to date cooling degree days 168  
Since 1 June cooling degree days 125  
Growing Degree Days 18 (Base 50)    
Moisture  
Dew Point 56 °F    
Average Humidity 70    
Maximum Humidity 90    
Minimum Humidity 50    
Precipitation  
Precipitation 0.00 in 0.00 in 0.00 in (2016)
Month to date precipitation 0.00 0.00  
Year to date precipitation 5.51 9.65  
Since 1 July precipitation 0.00  
Sea Level Pressure  
Sea Level Pressure 29.97 in    
Wind  
Wind Speed 6 mph (NNW)    
Max Wind Speed 15 mph    
Max Gust Speed 18 mph    
Visibility 9 miles    
Events      
T = Trace of Precipitation, MM = Missing Value Source: NWS Daily Summary

Daily Weather History Graph

Daily Weather History Graph

Search for Another Location

Airport or City:

Trip Planner

Search our weather history database for the weather conditions in past years. The results will help you decide how hot, cold, wet, or windy it might be!

Date:

Astronomy

Aug. 02, 2012 Rise Set
Actual Time 6:13 AM PDT 8:14 PM PDT
Civil Twilight 5:45 AM PDT 8:43 PM PDT
Nautical Twilight 5:09 AM PDT 9:18 PM PDT
Astronomical Twilight 4:32 AM PDT 9:55 PM PDT
Moon 8:26 PM PDT (8/2) 6:54 AM PDT (8/2)
Length of Visible Light 14h 58m
Length of Day
14h 00m
Waxing Gibbous, 99% of the Moon is Illuminated
Aug 2
Waxing Gibbous
Aug 9
Last Quarter
Aug 17
New
Aug 24
First Quarter
Aug 31
Full

Hourly Weather History & Observations

Time (PDT) Temp. Dew Point Humidity Pressure Visibility Wind Dir Wind Speed Gust Speed Precip Events Conditions
12:56 AM 60.1 °F 55.9 °F 86% 30.01 in 10.0 mi WNW 3.5 mph - N/A   Clear
1:26 AM 60.8 °F 55.4 °F 82% 30.00 in 10.0 mi Calm Calm - N/A   Partly Cloudy
1:41 AM 60.8 °F 55.4 °F 82% 30.00 in 10.0 mi Calm Calm - N/A   Mostly Cloudy
1:56 AM 60.1 °F 55.9 °F 86% 30.01 in 10.0 mi Calm Calm - N/A   Scattered Clouds
2:56 AM 59.0 °F 55.0 °F 87% 30.00 in 10.0 mi West 3.5 mph - N/A   Mostly Cloudy
3:56 AM 59.0 °F 55.0 °F 87% 30.00 in 10.0 mi Calm Calm - N/A   Overcast
4:56 AM 59.0 °F 55.9 °F 90% 30.00 in 8.0 mi Calm Calm - N/A   Overcast
5:56 AM 59.0 °F 55.9 °F 90% 29.99 in 7.0 mi Calm Calm - N/A   Overcast
6:56 AM 60.1 °F 55.9 °F 86% 30.00 in 6.0 mi Calm Calm - N/A   Overcast
7:56 AM 61.0 °F 57.0 °F 87% 30.01 in 7.0 mi Calm Calm - N/A   Overcast
8:07 AM 62.6 °F 57.2 °F 82% 30.01 in 7.0 mi Calm Calm - N/A   Overcast
8:56 AM 63.0 °F 57.0 °F 81% 30.02 in 7.0 mi Calm Calm - N/A   Scattered Clouds
9:56 AM 64.9 °F 57.0 °F 75% 30.01 in 8.0 mi North 6.9 mph - N/A   Clear
10:56 AM 66.9 °F 57.0 °F 70% 30.01 in 10.0 mi North 5.8 mph - N/A   Clear
11:56 AM 70.0 °F 57.0 °F 63% 30.00 in 10.0 mi North 5.8 mph - N/A   Clear
12:56 PM 73.9 °F 57.0 °F 55% 29.98 in 10.0 mi North 6.9 mph - N/A   Clear
1:56 PM 75.9 °F 57.0 °F 52% 29.96 in 10.0 mi NNW 9.2 mph - N/A   Clear
2:56 PM 77.0 °F 57.0 °F 50% 29.94 in 10.0 mi North 10.4 mph - N/A   Clear
3:56 PM 77.0 °F 59.0 °F 54% 29.93 in 10.0 mi North 12.7 mph - N/A   Clear
4:56 PM 73.9 °F 59.0 °F 59% 29.91 in 10.0 mi NNW 11.5 mph - N/A   Clear
5:56 PM 70.0 °F 57.9 °F 65% 29.91 in 10.0 mi NW 11.5 mph - N/A   Clear
6:56 PM 66.9 °F 57.0 °F 70% 29.91 in 10.0 mi NNW 10.4 mph - N/A   Clear
7:56 PM 64.0 °F 57.0 °F 78% 29.91 in 10.0 mi NNW 11.5 mph - N/A   Clear
8:56 PM 62.1 °F 55.9 °F 80% 29.93 in 10.0 mi North 12.7 mph - N/A   Clear
9:56 PM 61.0 °F 55.0 °F 81% 29.94 in 10.0 mi NNW 9.2 mph - N/A   Clear
10:56 PM 60.1 °F 55.0 °F 83% 29.94 in 10.0 mi North 10.4 mph - N/A   Clear
11:21 PM 60.8 °F 55.4 °F 82% 29.93 in 10.0 mi North 5.8 mph - N/A   Partly Cloudy
11:34 PM 59.0 °F 55.4 °F 88% 29.93 in 10.0 mi North 5.8 mph - N/A   Mostly Cloudy
11:56 PM 59.0 °F 55.9 °F 90% 29.94 in 10.0 mi NNE 5.8 mph - N/A   Overcast